EST,Max TemperatureF,Mean TemperatureF,Min TemperatureF,Max Dew PointF,MeanDew PointF,Min DewpointF,Max Humidity, Mean Humidity, Min Humidity, Max Sea Level PressureIn, Mean Sea Level PressureIn, Min Sea Level PressureIn, Max VisibilityMiles, Mean VisibilityMiles, Min VisibilityMiles, Max Wind SpeedMPH, Mean Wind SpeedMPH, Max Gust SpeedMPH,PrecipitationIn, CloudCover, Events, WindDirDegrees
2013-11-1,75,66,56,65,58,45,93,64,35,29.85,29.80,29.70,10,7,2,24,7,31,0.37,5,Rain,267
2013-11-2,69,57,45,47,41,36,100,65,30,30.06,29.91,29.81,10,10,10,22,7,30,0.00,1,,293
2013-11-3,65,53,41,42,38,30,89,59,28,30.30,30.19,30.07,10,10,9,10,3,14,0.00,0,,349
2013-11-4,62,52,42,40,37,34,89,63,36,30.46,30.40,30.32,10,10,10,14,5,22,0.00,0,,95
2013-11-5,63,53,43,45,36,31,71,52,33,30.49,30.41,30.34,10,10,10,15,6,35,0.00,2,,74
2013-11-6,73,62,50,56,52,46,96,77,57,30.35,30.25,30.12,10,8,2,12,4,17,0.01,6,Rain,100
2013-11-7,63,54,44,59,50,32,100,76,51,30.23,30.11,30.04,10,7,2,21,9,28,0.13,5,Rain,298
2013-11-8,62,50,37,35,29,22,85,54,22,30.35,30.28,30.24,10,10,10,13,5,17,0.00,0,,332
2013-11-9,58,48,38,42,35,30,85,61,36,30.39,30.32,30.27,10,10,9,8,1,12,0.00,0,,155
2013-11-10,70,57,43,43,39,36,92,62,31,30.30,30.25,30.19,10,10,8,15,5,20,0.00,2,,304
2013-11-11,65,50,35,39,35,28,92,59,26,30.33,30.25,30.20,10,10,9,10,2,17,0.00,0,,62
2013-11-12,62,47,31,41,32,16,100,68,36,30.47,30.26,30.16,10,9,7,24,10,33,0.00,1,,326
2013-11-13,50,37,23,23,16,7,81,49,16,30.61,30.54,30.48,10,10,10,9,3,14,0.00,0,,345
2013-11-14,58,41,23,26,21,13,96,57,18,30.54,30.44,30.34,10,10,7,8,2,13,0.00,0,,184
2013-11-15,51,43,35,47,38,23,100,69,38,30.33,30.24,30.18,10,6,2,8,2,14,0.26,7,Rain,56
2013-11-16,62,55,48,55,52,46,100,92,84,30.25,30.19,30.14,6,3,0,8,3,13,0.00,8,Fog,75
2013-11-17,68,63,58,67,61,55,100,94,87,30.16,30.02,29.93,7,4,1,10,4,15,0.02,8,,157
2013-11-18,70,60,50,67,46,30,93,60,27,30.05,29.97,29.88,10,9,5,21,10,26,0.02,2,Rain,304
2013-11-19,59,50,40,34,30,25,62,49,36,30.18,30.12,30.04,10,10,10,15,4,21,0.00,0,,16
2013-11-20,56,48,40,33,29,25,60,48,35,30.35,30.29,30.19,10,10,10,15,7,23,T,4,,78
2013-11-21,54,51,47,46,41,33,83,68,52,30.42,30.36,30.32,10,9,7,12,6,18,T,8,,73
2013-11-22,63,57,50,59,53,46,100,89,78,30.36,30.27,30.18,8,4,1,7,2,17,0.11,8,Rain,95
2013-11-23,59,49,39,59,46,26,100,77,53,30.27,30.19,30.14,10,8,2,18,12,25,0.02,6,Rain,315
2013-11-24,48,39,29,24,16,9,63,41,19,30.50,30.41,30.27,10,10,10,16,7,22,0.00,0,,338
2013-11-25,44,37,30,21,15,9,51,39,27,30.52,30.41,30.25,10,10,10,12,6,20,0.00,4,,82
2013-11-26,48,41,33,48,38,28,100,74,48,30.22,29.90,29.66,10,3,1,16,7,23,1.31,8,Rain,19
2013-11-27,43,35,27,40,26,16,92,74,56,30.31,29.97,29.70,10,9,5,32,17,48,0.12,5,Rain-Snow,315
2013-11-28,49,36,22,24,19,16,85,57,29,30.51,30.43,30.32,10,9,4,13,2,17,0.00,0,,310
2013-11-29,61,42,23,30,22,9,92,53,14,30.56,30.51,30.46,10,9,5,7,1,9,0.00,0,,303
2013-11-30,51,43,35,28,25,23,70,52,33,30.59,30.48,30.37,10,10,9,14,4,20,0.00,1,,75